Meteo Giornale » Osservazioni meteo Stati Uniti (USA) » Greeley-Weld
ore: 12:56 - Osservazioni Meteo Greeley-Weld
Lat. 40° 26' N Lon. 104° 38' W Alt. 1420 metri s.l.m.
29 °C
Sereno
Temp. 24 Ore
13 °C
29 °C
Sud-Est
9.3 Km/h
Dew point 11 °C
Umidità 32 %
Visibilità 10 Km
Il sole sorge alle ore 06:25
Il sole tramonta alle ore 19:32
| Data e Ora | Cielo e Fenomeni | T °C | DP °C | Um. % | Pres. hPa | Vis. km | Vento km/h | |
|---|---|---|---|---|---|---|---|---|
| Oggi h: 12:56 | Sereno | 29 | 11 | 32 | 1021 | 10 | SE 9.3 | |
| Oggi h: 11:56 | Sereno | 28 | 11 | 34 | 1021 | 10 | S/SE 13 | |
| Oggi h: 10:56 | Sereno | 27 | 11 | 36 | 1022 | 10 | N 0 | |
| Oggi h: 09:56 | Sereno | 23 | 12 | 49 | 1021 | 10 | N 0 | |
| Oggi h: 08:56 | Sereno | 20 | 12 | 59 | 1021 | 10 | N 0 | |
| Oggi h: 07:56 | Sereno | 16 | 12 | 77 | 1021 | 10 | N 0 | |
| Oggi h: 06:56 | Sereno | 13 | 11 | 87 | 1020 | 10 | O 7.4 | |
| Oggi h: 05:56 | Sereno | 13 | 12 | 93 | 1020 | 10 | NO 7.4 | |
| Oggi h: 04:56 | Sereno | 14 | 12 | 87 | 1019 | 10 | NE 7.4 | |
| Oggi h: 03:56 | Sereno | 14 | 12 | 87 | 1019 | 10 | N 0 | |
| Oggi h: 02:56 | Sereno | 15 | 13 | 87 | 1018 | 10 | NO 9.3 | |
| Oggi h: 01:56 | Sereno | 17 | 13 | 77 | 1019 | 10 | N 5.5 | |
| Oggi h: 00:56 | Poco Nuvoloso | 17 | 14 | 82 | 1019 | 10 | O/SO 7.4 | |
| Ieri h: 23:56 | Sereno | 18 | 14 | 77 | 1020 | 10 | N 5.5 | |
| Ieri h: 22:56 | Sereno | 17 | 14 | 82 | 1020 | 10 | N 5.5 | |
| Ieri h: 21:56 | Sereno | 18 | 13 | 72 | 1020 | 10 | N 0 | |
| Ieri h: 20:56 | Sereno | 19 | 13 | 68 | 1019 | 10 | S 7.4 | |
| Ieri h: 19:56 | Sereno | 19 | 13 | 68 | 1018 | 10 | N 0 | |
| Ieri h: 18:56 | Sereno | 24 | 13 | 50 | 1018 | 10 | SE 7.4 | |
| Ieri h: 17:56 | Sereno | 27 | 11 | 36 | 1019 | 10 | N 0 | |
| Ieri h: 16:56 | Sereno | 25 | 15 | 53 | 1019 | 10 | S 11.1 | |
| Ieri h: 15:56 | Nuvoloso | 25 | 14 | 50 | 1019 | 10 | SO 7.4 | |
| Ieri h: 14:56 | Pioggia | 23 | 14 | 56 | 1019 | 10 | NO 14.8 | |
| Ieri h: 13:56 | Molto Nuvoloso | 26 | 12 | 41 | 1019 | 10 | O/NO 20.3 | |



